| time (UTC) | temp F | wind direction | speed MPH | gust MPH | rain 1hr in | rain 24hr in | rain mn in | humidity % | barometer mb |
| 20260506165020 | 71 | 321 | 13.0 | 23.0 | 0.00 | 0.00 | 0.00 | 27 | 1015.9 |
| 20260506164020 | 71 | 331 | 13.0 | 22.0 | 0.00 | 0.00 | 0.00 | 26 | 1016.0 |
| 20260506163018 | 70 | 330 | 14.0 | 22.0 | 0.00 | 0.00 | 0.00 | 26 | 1015.9 |
| 20260506162017 | 69 | 329 | 13.0 | 21.0 | 0.00 | 0.00 | 0.00 | 26 | 1015.8 |
| 20260506161041 | 69 | 325 | 14.0 | 21.0 | 0.00 | 0.00 | 0.00 | 26 | 1015.8 |
| 20260506160018 | 69 | 329 | 12.0 | 19.0 | 0.00 | 0.00 | 0.00 | 26 | 1015.8 |
| 20260506155018 | 68 | 331 | 12.0 | 18.0 | 0.00 | 0.00 | 0.00 | 26 | 1015.8 |
| 20260506154038 | 68 | 331 | 13.0 | 20.0 | 0.00 | 0.00 | 0.00 | 27 | 1015.7 |
| 20260506153019 | 67 | 343 | 12.0 | 18.0 | 0.00 | 0.00 | 0.00 | 27 | 1015.7 |
| 20260506152018 | 67 | 332 | 11.0 | 16.0 | 0.00 | 0.00 | 0.00 | 27 | 1015.6 |
| 20260506151019 | 66 | 333 | 10.0 | 16.0 | 0.00 | 0.00 | 0.00 | 27 | 1015.6 |
| 20260506150140 | 66 | 335 | 10.0 | 18.0 | 0.00 | 0.00 | 0.00 | 27 | 1015.6 |
| 20260506145019 | 66 | 336 | 9.0 | 16.0 | 0.00 | 0.00 | 0.00 | 27 | 1015.6 |
| 20260506144020 | 65 | 328 | 8.0 | 14.0 | 0.00 | 0.00 | 0.00 | 27 | 1015.5 |
| 20260506143020 | 65 | 322 | 6.0 | 11.0 | 0.00 | 0.00 | 0.00 | 28 | 1015.5 |
| 20260506142018 | 64 | 312 | 4.0 | 9.0 | 0.00 | 0.00 | 0.00 | 29 | 1015.4 |
| 20260506141019 | 64 | 314 | 4.0 | 8.0 | 0.00 | 0.00 | 0.00 | 29 | 1015.4 |
| 20260506140020 | 64 | 316 | 3.0 | 7.0 | 0.00 | 0.00 | 0.00 | 29 | 1015.3 |
| 20260506135020 | 64 | 298 | 3.0 | 8.0 | 0.00 | 0.00 | 0.00 | 29 | 1015.1 |
| 20260506134017 | 63 | 305 | 2.0 | 5.0 | 0.00 | 0.00 | 0.00 | 30 | 1015.0 |
| 20260506133018 | 63 | 315 | 3.0 | 8.0 | 0.00 | 0.00 | 0.00 | 30 | 1014.9 |
| 20260506132028 | 62 | 315 | 3.0 | 5.0 | 0.00 | 0.00 | 0.00 | 31 | 1014.7 |
| 20260506131028 | 61 | 323 | 2.0 | 4.0 | 0.00 | 0.00 | 0.00 | 33 | 1014.6 |
| 20260506130029 | 60 | 312 | 2.0 | 5.0 | 0.00 | 0.00 | 0.00 | 33 | 1014.6 |
| 20260506125028 | 60 | 326 | 2.0 | 3.0 | 0.00 | 0.00 | 0.00 | 34 | 1014.5 |
| 20260506124029 | 60 | 322 | 2.0 | 3.0 | 0.00 | 0.00 | 0.00 | 34 | 1014.3 |
| 20260506123029 | 60 | 327 | 2.0 | 4.0 | 0.00 | 0.00 | 0.00 | 34 | 1014.1 |
| 20260506122029 | 61 | 334 | 3.0 | 4.0 | 0.00 | 0.00 | 0.00 | 32 | 1014.1 |
| 20260506121029 | 61 | 337 | 3.0 | 4.0 | 0.00 | 0.00 | 0.00 | 32 | 1014.1 |
| 20260506120021 | 61 | 328 | 3.0 | 5.0 | 0.00 | 0.00 | 0.00 | 31 | 1014.0 |
| 20260506115030 | 61 | 319 | 4.0 | 5.0 | 0.00 | 0.00 | 0.00 | 31 | 1014.0 |
| 20260506114030 | 61 | 307 | 3.0 | 5.0 | 0.00 | 0.00 | 0.00 | 31 | 1013.9 |
| 20260506113030 | 60 | 315 | 1.0 | 3.0 | 0.00 | 0.00 | 0.00 | 32 | 1013.8 |
| 20260506112020 | 60 | 319 | 3.0 | 5.0 | 0.00 | 0.00 | 0.00 | 31 | 1013.8 |
| 20260506111042 | 61 | 319 | 2.0 | 5.0 | 0.00 | 0.00 | 0.00 | 31 | 1013.7 |
| 20260506110041 | 61 | 316 | 3.0 | 6.0 | 0.00 | 0.00 | 0.00 | 30 | 1013.6 |
| 20260506105021 | 61 | 324 | 3.0 | 5.0 | 0.00 | 0.00 | 0.00 | 30 | 1013.5 |
| 20260506104031 | 61 | 318 | 3.0 | 6.0 | 0.00 | 0.00 | 0.00 | 30 | 1013.5 |
| 20260506103021 | 61 | 314 | 4.0 | 6.0 | 0.00 | 0.00 | 0.00 | 30 | 1013.4 |
| 20260506102020 | 61 | 312 | 4.0 | 5.0 | 0.00 | 0.00 | 0.00 | 30 | 1013.3 |
| 20260506101018 | 61 | 315 | 3.0 | 5.0 | 0.00 | 0.00 | 0.00 | 30 | 1013.1 |
| 20260506100019 | 60 | 330 | 1.0 | 3.0 | 0.00 | 0.00 | 0.00 | 31 | 1013.0 |
| 20260506095019 | 60 | 322 | 3.0 | 4.0 | 0.00 | 0.00 | 0.00 | 31 | 1012.9 |
| 20260506094018 | 61 | 321 | 2.0 | 5.0 | 0.00 | 0.00 | 0.00 | 31 | 1012.8 |
| 20260506093018 | 61 | 320 | 3.0 | 5.0 | 0.00 | 0.00 | 0.00 | 30 | 1012.8 |
| 20260506092019 | 61 | 317 | 3.0 | 6.0 | 0.00 | 0.00 | 0.00 | 30 | 1012.8 |
| 20260506091022 | 61 | 321 | 3.0 | 5.0 | 0.00 | 0.00 | 0.00 | 30 | 1012.8 |
| 20260506090022 | 62 | 316 | 3.0 | 5.0 | 0.00 | 0.00 | 0.00 | 30 | 1012.7 |
| 20260506085020 | 62 | 317 | 3.0 | 4.0 | 0.00 | 0.00 | 0.00 | 29 | 1012.8 |
| 20260506084022 | 62 | 313 | 3.0 | 5.0 | 0.00 | 0.00 | 0.00 | 30 | 1012.8 |
| 20260506083019 | 62 | 316 | 3.0 | 5.0 | 0.00 | 0.00 | 0.00 | 30 | 1012.9 |
| 20260506082022 | 61 | 315 | 3.0 | 5.0 | 0.00 | 0.00 | 0.00 | 30 | 1012.9 |
| 20260506081042 | 61 | 317 | 2.0 | 6.0 | 0.00 | 0.00 | 0.00 | 30 | 1012.9 |
| 20260506073023 | 61 | 321 | 2.0 | 5.0 | 0.00 | 0.00 | 0.00 | 30 | 1012.7 |
| 20260506072024 | 61 | 322 | 1.0 | 5.0 | 0.00 | 0.00 | 0.00 | 31 | 1012.7 |
| 20260506071020 | 60 | 330 | 0.0 | 2.0 | 0.00 | 0.00 | 0.00 | 31 | 1012.7 |
| 20260506062021 | 63 | 315 | 1.0 | 2.0 | 0.00 | 0.00 | 0.00 | 29 | 1012.3 |
| 20260506061041 | 63 | 303 | 1.0 | 3.0 | 0.00 | 0.00 | 0.00 | 28 | 1012.2 |
| 20260506051024 | 64 | 308 | 1.0 | 3.0 | 0.00 | 0.00 | 0.00 | 28 | 1011.7 |
| 20260506045024 | 64 | 284 | 2.0 | 3.0 | 0.00 | 0.00 | 0.00 | 28 | 1011.5 |
| 20260506044023 | 64 | 324 | 2.0 | 4.0 | 0.00 | 0.00 | 0.00 | 29 | 1011.4 |
| 20260506043023 | 64 | 305 | 1.0 | 3.0 | 0.00 | 0.00 | 0.00 | 29 | 1011.3 |
| 20260506042023 | 64 | 310 | 1.0 | 3.0 | 0.00 | 0.00 | 0.00 | 29 | 1011.2 |
| 20260506041024 | 64 | 317 | 1.0 | 4.0 | 0.00 | 0.00 | 0.00 | 30 | 1011.1 |
| 20260506040019 | 65 | 280 | 0.0 | 1.0 | 0.00 | 0.00 | 0.00 | 30 | 1010.9 |
| 20260506035019 | 65 | 262 | 0.0 | 2.0 | 0.00 | 0.00 | 0.00 | 30 | 1010.7 |
| 20260506034018 | 66 | 266 | 1.0 | 2.0 | 0.00 | 0.00 | 0.00 | 29 | 1010.5 |
| 20260506033019 | 66 | 220 | 2.0 | 3.0 | 0.00 | 0.00 | 0.00 | 28 | 1010.4 |
| 20260506032020 | 66 | 0.0 | 0.0 | 0.00 | 0.00 | 0.00 | 29 | 1010.2 | |
| 20260506031020 | 67 | 213 | 3.0 | 4.0 | 0.00 | 0.00 | 0.00 | 28 | 1010.0 |
| 20260506030020 | 67 | 204 | 3.0 | 5.0 | 0.00 | 0.00 | 0.00 | 28 | 1009.8 |
| 20260506025019 | 68 | 197 | 4.0 | 6.0 | 0.00 | 0.00 | 0.00 | 28 | 1009.7 |
| 20260506024019 | 68 | 191 | 5.0 | 7.0 | 0.00 | 0.00 | 0.00 | 28 | 1009.6 |
| 20260506023020 | 68 | 191 | 4.0 | 6.0 | 0.00 | 0.00 | 0.00 | 26 | 1009.5 |
| 20260506022017 | 68 | 191 | 6.0 | 8.0 | 0.00 | 0.00 | 0.00 | 26 | 1009.4 |
| 20260506021017 | 69 | 193 | 6.0 | 9.0 | 0.00 | 0.00 | 0.00 | 25 | 1009.2 |
| 20260506020041 | 69 | 189 | 5.0 | 9.0 | 0.00 | 0.00 | 0.00 | 23 | 1009.1 |
| 20260506015021 | 70 | 187 | 6.0 | 8.0 | 0.00 | 0.00 | 0.00 | 22 | 1009.0 |
| 20260506014018 | 70 | 189 | 6.0 | 11.0 | 0.00 | 0.00 | 0.00 | 21 | 1009.0 |
| 20260506013019 | 70 | 186 | 6.0 | 10.0 | 0.00 | 0.00 | 0.00 | 21 | 1009.0 |
| 20260506012039 | 70 | 192 | 5.0 | 8.0 | 0.00 | 0.00 | 0.00 | 21 | 1008.9 |
| 20260506011018 | 71 | 183 | 5.0 | 8.0 | 0.00 | 0.00 | 0.00 | 21 | 1008.9 |
| 20260506010018 | 70 | 196 | 5.0 | 8.0 | 0.00 | 0.00 | 0.00 | 21 | 1008.9 |
| 20260506005019 | 71 | 200 | 5.0 | 9.0 | 0.00 | 0.00 | 0.00 | 21 | 1008.8 |
| 20260506004039 | 70 | 201 | 4.0 | 7.0 | 0.00 | 0.00 | 0.00 | 21 | 1008.8 |
| 20260506003019 | 70 | 176 | 2.0 | 7.0 | 0.00 | 0.00 | 0.00 | 21 | 1008.6 |
| 20260506002040 | 71 | 179 | 4.0 | 11.0 | 0.00 | 0.00 | 0.00 | 21 | 1008.6 |
| 20260506001019 | 70 | 191 | 5.0 | 10.0 | 0.00 | 0.00 | 0.00 | 22 | 1008.6 |
| 20260506000020 | 70 | 134 | 3.0 | 7.0 | 0.00 | 0.00 | 0.00 | 22 | 1008.6 |
| 20260505235019 | 70 | 184 | 3.0 | 10.0 | 0.00 | 0.00 | 0.00 | 22 | 1008.6 |
| 20260505234040 | 71 | 177 | 3.0 | 8.0 | 0.00 | 0.00 | 0.00 | 22 | 1008.6 |
| 20260505233040 | 72 | 174 | 4.0 | 16.0 | 0.00 | 0.00 | 0.00 | 21 | 1008.6 |
| 20260505232018 | 72 | 241 | 2.0 | 6.0 | 0.00 | 0.00 | 0.00 | 21 | 1008.6 |
| 20260505231018 | 71 | 191 | 3.0 | 8.0 | 0.00 | 0.00 | 0.00 | 21 | 1008.8 |
| 20260505230021 | 70 | 345 | 7.0 | 12.0 | 0.00 | 0.00 | 0.00 | 23 | 1009.0 |
| 20260505225020 | 70 | 306 | 3.0 | 7.0 | 0.00 | 0.00 | 0.00 | 23 | 1009.1 |
| 20260505224018 | 69 | 179 | 4.0 | 9.0 | 0.00 | 0.00 | 0.00 | 23 | 1009.1 |
| 20260505223038 | 69 | 28 | 3.0 | 10.0 | 0.00 | 0.00 | 0.00 | 24 | 1009.2 |
| 20260505222018 | 69 | 186 | 4.0 | 8.0 | 0.00 | 0.00 | 0.00 | 24 | 1009.3 |
| 20260505221018 | 70 | 150 | 3.0 | 9.0 | 0.00 | 0.00 | 0.00 | 23 | 1009.3 |
| 20260505220100 | 70 | 163 | 4.0 | 8.0 | 0.00 | 0.00 | 0.00 | 23 | 1009.5 |
| 20260505215019 | 69 | 177 | 4.0 | 8.0 | 0.00 | 0.00 | 0.00 | 24 | 1009.5 |
| 20260505214019 | 69 | 164 | 5.0 | 9.0 | 0.00 | 0.00 | 0.00 | 24 | 1009.7 |
| 20260505213019 | 69 | 170 | 4.0 | 9.0 | 0.00 | 0.00 | 0.00 | 24 | 1009.7 |
| 20260505212019 | 69 | 123 | 4.0 | 13.0 | 0.00 | 0.00 | 0.00 | 25 | 1009.9 |
| 20260505211037 | 69 | 174 | 6.0 | 15.0 | 0.00 | 0.00 | 0.00 | 25 | 1010.0 |
| 20260505210020 | 68 | 22 | 5.0 | 8.0 | 0.00 | 0.00 | 0.00 | 26 | 1010.1 |
| 20260505205019 | 69 | 179 | 5.0 | 13.0 | 0.00 | 0.00 | 0.00 | 25 | 1010.1 |
| 20260505204020 | 69 | 163 | 6.0 | 12.0 | 0.00 | 0.00 | 0.00 | 25 | 1010.1 |
| 20260505203017 | 69 | 169 | 3.0 | 9.0 | 0.00 | 0.00 | 0.00 | 26 | 1010.0 |
| 20260505202017 | 69 | 163 | 4.0 | 13.0 | 0.00 | 0.00 | 0.00 | 26 | 1010.1 |
| 20260505201020 | 69 | 173 | 6.0 | 11.0 | 0.00 | 0.00 | 0.00 | 25 | 1010.1 |
| 20260505195018 | 68 | 173 | 3.0 | 9.0 | 0.00 | 0.00 | 0.00 | 27 | 1010.4 |
| 20260505194018 | 68 | 176 | 6.0 | 10.0 | 0.00 | 0.00 | 0.00 | 26 | 1010.4 |
| 20260505193019 | 68 | 251 | 4.0 | 10.0 | 0.00 | 0.00 | 0.00 | 27 | 1010.5 |
| 20260505192018 | 67 | 175 | 4.0 | 10.0 | 0.00 | 0.00 | 0.00 | 27 | 1010.5 |
| 20260505191019 | 67 | 107 | 4.0 | 9.0 | 0.00 | 0.00 | 0.00 | 27 | 1010.5 |
| 20260505190041 | 67 | 103 | 4.0 | 9.0 | 0.00 | 0.00 | 0.00 | 28 | 1010.6 |
| 20260505185019 | 67 | 176 | 5.0 | 10.0 | 0.00 | 0.00 | 0.00 | 28 | 1010.6 |
| 20260505184019 | 66 | 172 | 4.0 | 10.0 | 0.00 | 0.00 | 0.00 | 29 | 1010.8 |
| 20260505183020 | 65 | 96 | 3.0 | 8.0 | 0.00 | 0.00 | 0.00 | 31 | 1010.7 |
| 20260505182016 | 66 | 190 | 5.0 | 10.0 | 0.00 | 0.00 | 0.00 | 30 | 1010.8 |
| 20260505181021 | 65 | 191 | 4.0 | 10.0 | 0.00 | 0.00 | 0.00 | 31 | 1010.8 |
| 20260505180020 | 65 | 183 | 4.0 | 7.0 | 0.00 | 0.00 | 0.00 | 31 | 1010.8 |
| 20260505175040 | 65 | 176 | 5.0 | 10.0 | 0.00 | 0.00 | 0.00 | 31 | 1010.8 |
| 20260505174019 | 64 | 188 | 3.0 | 7.0 | 0.00 | 0.00 | 0.00 | 32 | 1010.9 |
| 20260505173018 | 64 | 180 | 4.0 | 8.0 | 0.00 | 0.00 | 0.00 | 34 | 1010.9 |
| 20260505172021 | 64 | 171 | 4.0 | 11.0 | 0.00 | 0.00 | 0.00 | 34 | 1010.9 |
| 20260505171021 | 62 | 172 | 4.0 | 11.0 | 0.00 | 0.00 | 0.00 | 35 | 1011.0 |
| 20260505170038 | 61 | 176 | 2.0 | 8.0 | 0.00 | 0.00 | 0.00 | 37 | 1011.1 |